Regional Weather Roundup
Issued by NWS

Home | Current Version | Previous Version | Text Only | Print | Product List | Glossary On
Versions: 1 2 3 4 5 6 7 8 9 10 11 12 13 14 15 16 17 18 19 20 21 22 23 24 25 26 27 28 29 30 31 32 33 34 35 36 37 38 39 40 41 42 43 44 45 46 47 48 49 50
708
ASUS45 KSLC 192010
RWRUT

UTAH REGIONAL WEATHER ROUNDUP
NATIONAL WEATHER SERVICE SALT LAKE CITY UT
200 PM MDT SUN MAY 19 2019

UTZ001>011-023>025-192100-

NORTHERN UTAH

CITY           SKY/WX    TMP DP  RH WIND       PRES   REMARKS
BRIGHAM CITY   CLOUDY    62  34  34 S16G24    29.60S
HILL AFB       PTSUNNY   58  35  42 S20G29    29.61S
LOGAN          CLOUDY    58  37  45 SE12G23   29.61F
OGDEN          CLOUDY    59  32  36 SE13      29.60S
SALT LAKE CITY LGT RAIN  59  37  44 S28G36    29.61R
TOOELE VALLEY  LGT RAIN  54  41  62 S26G33    29.62R
WENDOVER       CLOUDY    51  43  74 W7        29.59S
HEBER CITY     DRIZZLE   52  32  46 S18G29    29.67R
WEST JORDAN    CLOUDY    55  39  55 S18G28    29.63R

$$

UTZ011>015-024>027-192100-

CENTRAL/NORTHEAST UTAH

CITY           SKY/WX    TMP DP  RH WIND       PRES   REMARKS
PROVO AIRPORT  LGT RAIN  53  42  66 SE16      29.68R
MOAB/CANYONLAN CLOUDY    65  25  22 S12G18    29.69F
DELTA          CLOUDY    50  43  76 SE8       29.67F
PRICE          CLOUDY    50  34  54 S14G23    29.76S
ROOSEVELT      CLOUDY    57  32  38 CALM      29.75S
VERNAL         CLOUDY    54  35  48 W6        29.74F

$$

UTZ013>016-019>022-027-192100-

SOUTHERN UTAH

CITY           SKY/WX    TMP DP  RH WIND       PRES   REMARKS
BRYCE CANYON   SNOW      32  31  96 SE15      29.83S VSB 1/4 WCI  22
CEDAR CITY     CLOUDY    51  41  68 SW20G29   29.71S
MILFORD        LGT RAIN  49  42  77 SW20      29.68R
ST GEORGE      CLOUDY    66  39  37 SW25G33   29.68F
HANKSVILLE     CLOUDY    63  28  27 S12       29.71F
BLANDING         N/A     58  20  23 S22G32    29.88S

$$

REGIONAL REPORTS     COLORADO/ARIZONA

CITY           SKY/WX    TMP DP  RH WIND       PRES   REMARKS
CRAIG, CO      CLOUDY    57  27  31 S3        29.77F
GRAND JUNCTION CLOUDY    63  28  26 S17G26    29.74R
RIFLE, CO      CLOUDY    62  28  27 S13       29.76R
MONTROSE, CO   CLOUDY    61  27  27 S8        29.80F
CORTEZ, CO     CLOUDY    58  28  32 SE13G26   29.85F
COLORADO CITY  MOCLDY    55  43  62 SW21G29   29.80F
PAGE, AZ       CLOUDY    55  38  52 W7        29.76R
GRAND CANYON   RAIN      40  38  93 SW16G29   29.87F FOG     WCI  31
KINGMAN, AZ    LGT RAIN  65  41  41 SW20G26   29.78F
FLAGSTAFF, AZ  CLOUDY    48  27  44 SW29G39   29.88F

$$

REGIONAL REPORTS    NEVADA/IDAHO/WYOMING

CITY           SKY/WX    TMP DP  RH WIND       PRES   REMARKS
LAS VEGAS, NV  MOSUNNY   71  31  22 SW26G35   29.63F
ELY, NY        LGT RAIN  43  32  65 SE5       29.66F
ELKO, NV       CLOUDY    46  38  73 SW12      29.63F
POCATELLO, ID  CLOUDY    57  38  48 SE14      29.63F
BURLEY, ID     CLOUDY    53  42  66 E14G25    29.59F
EVANSTON, WY   CLOUDY    50  30  46 E16G26    29.70F
ROCK SPRINGS,  CLOUDY    48  32  53 E14       29.78F
KEMMERER, WY   CLOUDY    46  32  57 E24G33    29.75S

$$




USA.gov is the U.S. government's official web portal to all federal, state and local government web resources and services.